Regional Weather Roundup
Issued by NWS Sioux Falls, SD

Home | Current Version | Previous Version | Graphics & Text | Print | Product List | Glossary On
Versions: 1 2 3 4 5 6 7 8 9 10 11 12 13 14 15 16 17 18 19 20 21 22 23 24 25 26 27 28 29 30 31 32 33 34 35 36 37 38 39 40 41 42 43 44 45 46 47 48 49 50
000
ASUS43 KFSD 230802
RWRFSD

WEATHER ROUNDUP FOR SE SOUTH DAKOTA/SW MINNESOTA/NW IOWA
NATIONAL WEATHER SERVICE SIOUX FALLS SD
300 AM CDT SAT AUG 23 2014

NOTE: "FAIR" INDICATES FEW OR NO CLOUDS BELOW 12,000 FEET WITH NO
SIGNIFICANT WEATHER AND OR OBSTRUCTIONS TO VISIBILITY.


SDZ038>040-050-052>070-230900-
SOUTHEAST SOUTH DAKOTA

CITY           SKY/WX    TMP DP  RH WIND       PRES   REMARKS
CHAMBERLAIN    LGT RAIN  70  69  97 E5        29.93F
HURON          CLOUDY    71  67  87 E10       29.93F
MADISON        CLOUDY    68  68 100 E12       29.97S
MITCHELL       CLOUDY    72  70  93 E7        29.94R
SIOUX FALLS    CLOUDY    73  68  84 E10       29.95F
WINNER         RAIN      72  69  90 E12       29.93S FOG
YANKTON        CLOUDY    73  72  94 SE13      29.96R
$$

MNZ071-072-080-081-089-090-097-098-230900-
SOUTHWEST MINNESOTA

CITY           SKY/WX    TMP DP  RH WIND       PRES   REMARKS
FAIRMONT       CLOUDY    61  61 100 NE5       29.97F
JACKSON        CLOUDY    68  64  88 E6        29.99F FOG
LUVERNE        CLOUDY    72  68  88 E5        29.97S
MARSHALL       CLOUDY    70  66  88 SE8         N/A
MONTEVIDEO     CLOUDY    72  72 100 S6        29.99F
PIPESTONE      CLOUDY    70  66  88 E8        29.99S
REDWOOD FALLS  CLOUDY    69  68  96 E6        29.98F
TRACY          CLOUDY    70  68  95 SE5       30.00R
WINDOM         CLOUDY    68  66  94 E6        29.99F FOG
WORTHINGTON      N/A     70  68  94 E6        30.00S
$$

IAZ001>003-012>014-020>022-031-032-NEZ013-014-SDZ071-230900-
NORTHWEST IOWA

CITY           SKY/WX    TMP DP  RH WIND       PRES   REMARKS
CHEROKEE       CLOUDY    73  72  94 E8        29.96R
DENISON        CLOUDY    70  70 100 N5        29.92F
ESTHERVILLE    CLOUDY    68  68 100 CALM      29.97F FOG
LE MARS        CLOUDY    73  72  94 SE7       29.96R
ORANGE CITY    CLOUDY    75  70  83 E7        29.96S
SHELDON        CLOUDY    72  70  94 E10       29.95S
SIOUX CITY     TSTM      73  68  84 N7        29.98F
SPENCER        CLOUDY    72  69  90 E8        29.96F
STORM LAKE     CLOUDY    72  72 100 E8        29.97S
$$

ABBREVIATIONS USED IN REMARKS
   TC - TEMPERATURE IN CELSIUS
  WCI - WIND CHILL INDEX
   HX - HEAT INDEX
  VSB - VISIBILITY




USA.gov is the U.S. government's official web portal to all federal, state and local government web resources and services.